Regional Weather Roundup
Issued by NWS

Home | Current Version | Previous Version | Graphics & Text | Print | Product List | Glossary On
Versions: 1 2 3 4 5 6 7 8 9 10 11 12 13 14 15 16 17 18 19 20 21 22 23 24 25 26 27 28 29 30 31 32 33 34 35 36 37 38 39 40 41 42 43 44 45 46 47 48 49 50
000
ASUS43 KIND 171259
RWRIN

WEATHER ROUNDUP FOR INDIANA
NATIONAL WEATHER SERVICE INDIANAPOLIS IN
800 AM EST WED DEC 17 2014

NOTE: "FAIR" INDICATES FEW OR NO CLOUDS BELOW 12,000 FEET WITH NO
SIGNIFICANT WEATHER AND/OR OBSTRUCTIONS TO VISIBILITY.

* - STATION DOES NOT REPORT WEATHER SUCH AS PRECIPITATION OR FOG.

+ - STATION NOT QUALITY CONTROLLED BY THE NATIONAL WEATHER SERVICE.
    USE DATA WITH CAUTION...ESPECIALLY DEWPOINT AND RELATIVE
    HUMIDITY OBSERVATIONS.

INZ001>003-010>013-019-020-171400-
NORTHWEST INDIANA

CITY           SKY/WX    TMP DP  RH WIND       PRES   REMARKS
GARY /AIRPORT/ CLOUDY    28  21  74 W14       30.23R WCI  17
KNOX *+        CLOUDY    28  23  82 W14       30.20R WCI  16
MONTICELLO +   CLOUDY    26  22  87 NW12G17   30.23R WCI  15
VALPARAISO     NOT AVBL

$$

LMZ046-743>745-171400-
SOUTHERN LAKE MICHIGAN

STATION/POSITION TIME  TEMP WIND        PRES
                       AIR  DIR/SP/G
                 (UTC) (F)  (DEG/KT/KT) (MB)

$$

INZ004-005-014>016-021>024-171400-
NORTH CENTRAL INDIANA

CITY           SKY/WX    TMP DP  RH WIND       PRES   REMARKS
ELKHART        CLOUDY    30  23  74 W17       30.17R WCI  18
GOSHEN         CLOUDY    29  23  78 W13       30.16R WCI  19
SOUTH BEND     NOT AVBL
WARSAW +       CLOUDY    30  25  80 W16       30.17R WCI  19

$$

INZ006>009-017-018-025>027-171400-
NORTHEAST INDIANA

CITY           SKY/WX    TMP DP  RH WIND       PRES   REMARKS
ANGOLA *+      CLOUDY    28  23  80 W8        30.12R WCI  20
FORT WAYNE     CLOUDY    31  24  75 W13       30.17R WCI  21

$$

INZ028-029-035-036-043>045-051>053-171400-
WEST CENTRAL INDIANA

CITY           SKY/WX    TMP DP  RH WIND       PRES   REMARKS
GREENCASTLE +  CLOUDY    27  23  86 NW7       30.26S WCI  19
LAFAYETTE      CLOUDY    24  21  88 W10       30.26R WCI  14
TERRE HAUTE    CLOUDY    26  22  84 NW8       30.29S WCI  18

$$

INZ030>032-037>040-046>048-054>057-064-065-171400-
CENTRAL INDIANA

CITY           SKY/WX    TMP DP  RH WIND       PRES   REMARKS
FRANKFORT +    CLOUDY    26  26 100 W16       30.25R WCI  13
INDIANAPOLIS   CLOUDY    26  22  84 W13       30.24R WCI  15
-EAGLE CREEK   CLOUDY    26  24  92 W13       30.24R WCI  15
KOKOMO *+      CLOUDY    28  21  74 W18       30.21S WCI  16
MT COMFORT *+  CLOUDY    27  25  93 W13       30.24R WCI  16
SHELBYVILLE    CLOUDY    29  24  82 NW9       30.23R WCI  20

$$

INZ033-034-041-042-049-050-058-059-171400-
EAST CENTRAL INDIANA

CITY           SKY/WX    TMP DP  RH WIND       PRES   REMARKS
MUNCIE         CLOUDY    29  24  82 W16G23    30.20R WCI  17

$$

INZ060-061-067>069-081>083-085>088-171400-
SOUTHWEST INDIANA

CITY           SKY/WX    TMP DP  RH WIND       PRES   REMARKS
EVANSVILLE     CLOUDY    32  24  72 NW8       30.32S WCI  25
HUNTINGBURG *+ CLOUDY    30  23  74 W9        30.31R WCI  22

$$

INZ062-063-066-070>080-084-089>092-171400-
SOUTH CENTRAL AND SOUTHEAST INDIANA

CITY           SKY/WX    TMP DP  RH WIND       PRES   REMARKS
BLOOMINGTON    CLOUDY    26  23  88 W8        30.26R WCI  18

$$



USA.gov is the U.S. government's official web portal to all federal, state and local government web resources and services.